Location: Hac?musa Deresi
(39.1694°N, 32.2508°E)
Time: 16:56:56
(UTC+00:00)

Cosmos 1447 Rocket - Pass Details

Date: 22 April 2026
Orbit: 953 x 995 km, 82.9° (Epoch: 11 May)

Event Time Altitude Azimuth Distance (km) Brightness Sun altitude
Rises 19:34:42 0° 353° (N) 3,682 8.4 -29.6°
Reaches altitude 10° 19:37:14 10° 354° (N) 2,724 7.5 -29.9°
Enters shadow 19:43:03 78° 10° (N) 988 4.4 -30.6°
